Location: Ferchesar
(52.6477°N, 12.4298°E)
Time: 04:37:41
(UTC+01:00)

Vanguard 1 Rocket - Pass Details

Date: 13 December 2021
Orbit: 651 x 4224 km, 34.3° (Epoch: 15 January)

Event Time Altitude Azimuth Distance (km) Brightness Sun altitude
Exits shadow 06:11:47 - 250° (WSW) 4,876 10.6 -17.1°
Reaches altitude 10° 06:12:06 10° 248° (WSW) 4,851 10.6 -17.1°
Maximum altitude 06:22:00 22° 206° (SSW) 4,983 11.0 -15.7°
Drops below altitude 10° 06:35:58 10° 166° (SSE) 6,971 12.4 -13.7°
Sets 06:44:14 0° 154° (SSE) 8,343 13.1 -12.5°
